Regional Weather Roundup
Issued by NWS Northern Indiana

Home | Current Version | Previous Version | Graphics & Text | Print | Product List | Glossary On
Versions: 1 2 3 4 5 6 7 8 9 10 11 12 13 14 15 16 17 18 19 20 21 22 23 24 25 26 27 28 29 30 31 32 33 34 35 36 37 38 39 40 41 42 43 44 45 46 47 48 49 50
428
ASUS43 KIWX 250510
RWRIWX

KIWX WEATHER ROUNDUP
NATIONAL WEATHER SERVICE NORTHERN INDIANA
100 AM EDT MON JUL 25 2016

NOTE: "FAIR" INDICATES FEW OR NO CLOUDS BELOW 12,000 FEET WITH NO
SIGNIFICANT WEATHER AND/OR OBSTRUCTIONS TO VISIBILITY.

* THESE STATIONS ARE NOT UNDER NWS QUALITY CONTROL. THEY ALSO MAY NOT
  REPORT WEATHER SUCH AS PRECIPITATION OR FOG.

INZ001>027-250600-
NORTHERN INDIANA

CITY           SKY/WX    TMP DP  RH WIND       PRES   REMARKS
GARY*          CLOUDY    75  74  98 S9        29.95R
VALPARAISO     LGT RAIN  72  69  90 S13       29.97R
MICHIGAN CITY* LGT RAIN  72  70  94 S6        29.96R
LAPORTE*       TSTM      73  73 100 SW14      29.99R
KNOX*          CLOUDY    70  63  78 SW8       29.97R
SOUTH BEND     TSTM      70  67  90 SW16      29.96R
GOSHEN         LGT RAIN  75  65  70 SW14      29.95R
MONTICELLO*    LGT RAIN  70  65  84 CALM      30.00R
LOGANSPORT*    LGT RAIN  70  66  88 NW3       30.00F
ROCHESTER*     MOCLDY    70  70 100 SW13G21   29.99R
WARSAW*        RAIN      70  68  94 SW3       29.96S
ANGOLA*        PTCLDY    82  75  78 SW12      29.93R
FORT WAYNE     CLOUDY    81  74  79 SW12      29.96R
HUNTINGTON*    CLOUDY    77  66  67 W12G25    29.97R
PERU/GRISSOM   LGT RAIN  70  68  94 W3        29.97F
MARION*        CLOUDY    78  69  76 W9        30.00R HAZE

$$
INZ028>050-250600-
CENTRAL INDIANA

CITY           SKY/WX    TMP DP  RH WIND       PRES   REMARKS
LAFAYETTE      CLOUDY    71  69  93 W3        30.01R
KOKOMO*        CLOUDY    73  63  68 NW9       30.00S
MUNCIE*        CLEAR     82  75  79 SW7       29.99R
INDIANAPOLIS   MOCLDY    80  76  87 W7        30.01R

$$
MIZ043>046-050>051-056>058-064>065-071>073-077>080-250600-
SOUTHWEST LOWER MICHIGAN

CITY           SKY/WX    TMP DP  RH WIND       PRES   REMARKS
BATTLE CREEK   LGT RAIN  78  78 100 SW10      29.90R
BENTON HARBOR  CLOUDY    77  65  66 S10       29.91R
COLDWATER*     CLOUDY    81  77  88 SW9G17    29.92R
HOLLAND        CLOUDY    77  69  76 W9        29.89R
GRAND RAPIDS   CLOUDY    80  67  64 SW12      29.88R
KALAMAZOO      CLOUDY    79  71  76 SW7       29.91R
STURGIS*       MOCLDY    78  70  76 SW7       29.92R
THREE RIVERS*  FAIR      81  74  79 SW9       29.92R

$$
OHZ001>008-015>018-024>025-250600-
NORTHWEST OHIO

CITY           SKY/WX    TMP DP  RH WIND       PRES   REMARKS
WAUSEON*       FAIR      79  75  89 SW9       29.92R
DEFIANCE       CLOUDY    81  75  82 S7        29.92S
FINDLAY        CLEAR     78  72  81 S8        29.94R
TOLEDO EXPRESS PTCLDY    77  75  93 S8        29.91S
TOLEDO METCALF CLEAR     78  76  93 S8        29.92S
LIMA           CLEAR     79  75  87 S8        29.97R

$$
AND FOR LAKE MICHIGAN COASTAL AND OPEN LAKE BUOY OBSERVATIONS

STATION/POSITION TEMP    WIND        PRES    VSBY  WAVE
                 AIR SEA DIR/SP/G                  HT/PER
                 (F)     (DEG/KT/KT) (MB)    (MI)  (FT/S)
CALUMET HARBOR    76     210/  7/  9 1012.4R
MICHIGAN CITY     77     160/  9/ 13   N/A
BURNS HARBOR      74     190/ 18/ 22 1014.2R
SAINT JOSEPH      79     200/ 11/ 17 1013.9R
SOUTH LAKE BUOY   75 73  210/ 10/ 10 1010.9R         2/ 4
4 MI NW BRIDGMAN  75 74  180/ 12/ 14 1012.9R         3/ 5
MICHIGAN CITY     75 74  220/ 14/ 17   N/A           2/ 4

$$
&&




USA.gov is the U.S. government's official web portal to all federal, state and local government web resources and services.